Weather History for International Falls, MN

Change the Weather History Date:

Thursday, June 27, 2013

  Actual Average Record
Temperature  
Mean Temperature 67 °F 64 °F  
Max Temperature 79 °F 76 °F 101 °F (1912)
Min Temperature 54 °F 51 °F 37 °F (1925)
Degree Days  
Heating Degree Days 0 3  
Month to date heating degree days 167 155  
Since 1 June heating degree days 167 155  
Since 1 July heating degree days 10711 10212  
Cooling Degree Days 2 2  
Month to date cooling degree days 31 36  
Year to date cooling degree days 34 45  
Since 1 June cooling degree days 31 36  
Growing Degree Days 16 (Base 50)    
Moisture  
Dew Point 59 °F    
Average Humidity 74    
Maximum Humidity 100    
Minimum Humidity 48    
Precipitation  
Precipitation T in 0.14 in 1.63 in (1977)
Month to date precipitation 1.47 3.51  
Year to date precipitation 13.85 10.04  
Snow  
Snow 0.00 in 0.00 in T in (1994)
Month to date snowfall 0.0 0.0  
Since 1 June snowfall 0.0 0.0  
Since 1 July snowfall 98.6 71.0  
Snow Depth 0.00 in    
Sea Level Pressure  
Sea Level Pressure 29.72 in    
Wind  
Wind Speed 9 mph (West)    
Max Wind Speed 21 mph    
Max Gust Speed 28 mph    
Visibility 10 miles    
Events Rain    
T = Trace of Precipitation, MM = Missing Value Source: NWS Daily Summary

Daily Weather History Graph

Daily Weather History Graph

Search for Another Location

Airport:

Trip Planner

Search our weather history database for the weather conditions in past years. The results will help you decide how hot, cold, wet, or windy it might be!

Date:

Astronomy

Jun. 27, 2013 Rise Set
Actual Time 5:13 AM CDT 9:19 PM CDT
Civil Twilight 4:31 AM CDT 10:01 PM CDT
Nautical Twilight 3:32 AM CDT 11:00 PM CDT
Astronomical Twilight 1:35 AM CDT 12:54 AM CDT
Moon 11:47 PM CDT (6/27) 10:41 AM CDT (6/27)
Length of Visible Light 17h 30m
Length of Day
16h 06m
Waning Gibbous, 76% of the Moon is Illuminated
Jun 27
Waning Gibbous
Jun 29
Last Quarter
Jul 8
New
Jul 15
First Quarter
Jul 22
Full

Hourly Weather History & Observations

Time (CDT) Temp. Dew Point Humidity Pressure Visibility Wind Dir Wind Speed Gust Speed Precip Events Conditions
12:55 AM 59.0 °F 57.9 °F 96% 29.74 in 10.0 mi Calm Calm - N/A   Clear
1:55 AM 59.0 °F 57.0 °F 93% 29.73 in 10.0 mi Calm Calm - N/A   Clear
2:55 AM 57.9 °F 55.9 °F 93% 29.73 in 10.0 mi Calm Calm - N/A   Mostly Cloudy
3:55 AM 57.0 °F 55.0 °F 93% 29.72 in 10.0 mi SSW 3.5 mph - N/A   Clear
4:55 AM 55.0 °F 54.0 °F 96% 29.72 in 10.0 mi Calm Calm - N/A   Clear
5:55 AM 55.9 °F 55.0 °F 97% 29.72 in 10.0 mi Calm Calm - N/A   Clear
6:55 AM 61.0 °F 59.0 °F 93% 29.72 in 10.0 mi SW 6.9 mph - N/A   Partly Cloudy
7:55 AM 66.9 °F 61.0 °F 81% 29.71 in 10.0 mi WSW 4.6 mph - N/A   Clear
8:55 AM 70.0 °F 61.0 °F 73% 29.70 in 10.0 mi West 6.9 mph - N/A   Partly Cloudy
9:55 AM 73.0 °F 62.1 °F 68% 29.71 in 10.0 mi West 9.2 mph - N/A   Clear
10:55 AM 75.9 °F 63.0 °F 64% 29.71 in 10.0 mi West 11.5 mph - N/A   Clear
11:55 AM 75.9 °F 61.0 °F 60% 29.71 in 10.0 mi West 16.1 mph - N/A   Scattered Clouds
12:55 PM 78.1 °F 60.1 °F 54% 29.71 in 10.0 mi West 11.5 mph 21.9 mph N/A   Mostly Cloudy
1:55 PM 75.0 °F 57.0 °F 53% 29.71 in 10.0 mi WNW 19.6 mph 25.3 mph N/A   Mostly Cloudy
2:55 PM 75.9 °F 57.9 °F 54% 29.72 in 10.0 mi West 12.7 mph 23.0 mph N/A   Scattered Clouds
3:55 PM 78.1 °F 57.9 °F 50% 29.70 in 10.0 mi WNW 12.7 mph 21.9 mph N/A   Scattered Clouds
4:55 PM 77.0 °F 57.0 °F 50% 29.70 in 10.0 mi West 12.7 mph 21.9 mph N/A   Mostly Cloudy
5:55 PM 73.9 °F 59.0 °F 59% 29.71 in 10.0 mi WNW 12.7 mph 20.7 mph 0.00 in Rain Light Rain
6:55 PM 70.0 °F 61.0 °F 73% 29.72 in 10.0 mi NNW 6.9 mph - 0.00 in   Overcast
7:55 PM 71.1 °F 61.0 °F 70% 29.71 in 10.0 mi West 10.4 mph 21.9 mph N/A   Mostly Cloudy
8:55 PM 66.0 °F 60.1 °F 81% 29.72 in 10.0 mi West 18.4 mph 26.5 mph 0.00 in Rain Light Rain
9:13 PM 64.4 °F 60.8 °F 88% 29.73 in 10.0 mi West 13.8 mph 20.7 mph 0.00 in   Overcast
9:55 PM 64.9 °F 60.1 °F 84% 29.73 in 10.0 mi WNW 12.7 mph - 0.00 in   Overcast
10:55 PM 63.0 °F 59.0 °F 87% 29.72 in 10.0 mi West 8.1 mph - N/A   Mostly Cloudy
11:55 PM 64.0 °F 59.0 °F 84% 29.72 in 10.0 mi West 8.1 mph - N/A   Overcast